Time,TemperatureF,DewpointF,PressureIn,WindDirection,WindDirectionDegrees,WindSpeedMPH,WindSpeedGustMPH,Humidity,HourlyPrecipIn,Conditions,Clouds,dailyrainin,SoftwareType,DateUTC
2013-01-05 00:00:00,33.6,21.2,29.93,NNW,335,4.0,11.0,60,0.00,,CLR,0.00,VWS V14.01,2013-01-05 05:00:00,
2013-01-05 00:01:00,33.6,21.2,29.94,NNW,337,8.0,9.0,60,0.00,,CLR,0.00,VWS V14.01,2013-01-05 05:01:00,
2013-01-05 00:06:00,33.6,21.2,29.93,NNW,345,6.0,9.0,60,0.00,,CLR,0.00,VWS V14.01,2013-01-05 05:06:00,
2013-01-05 00:11:00,33.6,20.8,29.93,North,359,2.0,9.0,59,0.00,,CLR,0.00,VWS V14.01,2013-01-05 05:11:00,
2013-01-05 00:16:00,33.5,21.1,29.94,NNW,339,4.0,9.0,60,0.00,,CLR,0.00,VWS V14.01,2013-01-05 05:16:00,
2013-01-05 00:21:00,33.4,21.0,29.94,NNW,336,3.0,9.0,60,0.00,,CLR,0.00,VWS V14.01,2013-01-05 05:21:00,
2013-01-05 00:26:00,33.5,20.7,29.94,NNW,340,5.0,9.0,59,0.00,,CLR,0.00,VWS V14.01,2013-01-05 05:26:00,
2013-01-05 00:31:00,33.4,20.6,29.94,NW,324,2.0,8.0,59,0.00,,CLR,0.00,VWS V14.01,2013-01-05 05:31:00,
2013-01-05 00:36:00,33.4,20.6,29.94,NNW,333,6.0,11.0,59,0.00,,CLR,0.00,VWS V14.01,2013-01-05 05:36:00,
2013-01-05 00:41:00,33.6,20.4,29.94,North,357,15.0,15.0,58,0.00,,CLR,0.00,VWS V14.01,2013-01-05 05:41:00,
2013-01-05 00:46:00,33.7,20.1,29.94,North,350,5.0,18.0,57,0.00,,CLR,0.00,VWS V14.01,2013-01-05 05:46:00,
2013-01-05 00:51:00,33.7,20.1,29.94,NNW,334,5.0,18.0,57,0.00,,CLR,0.00,VWS V14.01,2013-01-05 05:51:00,
2013-01-05 00:56:00,33.7,20.1,29.95,North,0,6.0,18.0,57,0.00,,CLR,0.00,VWS V14.01,2013-01-05 05:56:00,
2013-01-05 01:01:00,33.8,20.2,29.94,NNW,329,11.0,11.0,57,0.00,,CLR,0.00,VWS V14.01,2013-01-05 06:01:00,
2013-01-05 01:06:00,33.8,19.8,29.95,NNW,343,6.0,17.0,56,0.00,,CLR,0.00,VWS V14.01,2013-01-05 06:06:00,
2013-01-05 01:11:00,33.8,19.8,29.95,North,355,11.0,17.0,56,0.00,,CLR,0.00,VWS V14.01,2013-01-05 06:11:00,
2013-01-05 01:16:00,33.8,19.8,29.95,North,350,2.0,17.0,56,0.00,,CLR,0.00,VWS V14.01,2013-01-05 06:16:00,
2013-01-05 01:21:00,33.7,19.7,29.95,North,355,9.0,17.0,56,0.00,,CLR,0.00,VWS V14.01,2013-01-05 06:21:00,
2013-01-05 01:26:00,33.7,19.7,29.96,NNW,342,6.0,17.0,56,0.00,,CLR,0.00,VWS V14.01,2013-01-05 06:26:00,
2013-01-05 01:31:00,33.6,19.6,29.96,NNW,328,6.0,9.0,56,0.00,,CLR,0.00,VWS V14.01,2013-01-05 06:31:00,
2013-01-05 01:36:00,33.5,19.5,29.96,NNW,329,6.0,9.0,56,0.00,,CLR,0.00,VWS V14.01,2013-01-05 06:36:00,
2013-01-05 01:41:00,33.4,19.4,29.96,North,353,10.0,11.0,56,0.00,,CLR,0.00,VWS V14.01,2013-01-05 06:41:00,
2013-01-05 01:46:00,33.4,19.4,29.96,North,356,9.0,11.0,56,0.00,,CLR,0.00,VWS V14.01,2013-01-05 06:46:00,
2013-01-05 01:51:00,33.3,19.3,29.96,NW,322,9.0,11.0,56,0.00,,CLR,0.00,VWS V14.01,2013-01-05 06:51:00,
2013-01-05 01:56:00,33.3,19.3,29.96,North,350,3.0,12.0,56,0.00,,CLR,0.00,VWS V14.01,2013-01-05 06:56:00,
2013-01-05 02:01:00,33.2,19.2,29.97,North,359,2.0,7.0,57,0.00,,CLR,0.00,VWS V14.01,2013-01-05 07:01:00,
2013-01-05 02:06:00,33.2,19.6,29.97,NNW,333,5.0,11.0,57,0.00,,CLR,0.00,VWS V14.01,2013-01-05 07:06:00,
2013-01-05 02:11:00,33.2,19.6,29.97,NNW,337,6.0,11.0,57,0.00,,CLR,0.00,VWS V14.01,2013-01-05 07:11:00,
2013-01-05 02:16:00,33.1,19.5,29.98,North,354,4.0,11.0,57,0.00,,CLR,0.00,VWS V14.01,2013-01-05 07:16:00,
2013-01-05 02:21:00,33.1,19.5,29.98,NNW,347,6.0,11.0,57,0.00,,CLR,0.00,VWS V14.01,2013-01-05 07:21:00,
2013-01-05 02:26:00,33.0,19.4,29.98,North,357,6.0,11.0,57,0.00,,CLR,0.00,VWS V14.01,2013-01-05 07:26:00,
2013-01-05 02:31:00,33.0,19.4,29.98,NNW,348,7.0,9.0,57,0.00,,CLR,0.00,VWS V14.01,2013-01-05 07:31:00,
2013-01-05 02:36:00,32.9,19.4,29.99,North,351,3.0,14.0,57,0.00,,CLR,0.00,VWS V14.01,2013-01-05 07:36:00,
2013-01-05 02:41:00,32.9,19.4,29.99,North,3,5.0,14.0,57,0.00,,CLR,0.00,VWS V14.01,2013-01-05 07:41:00,
2013-01-05 02:46:00,32.8,19.3,29.99,NNW,342,4.0,14.0,57,0.00,,CLR,0.00,VWS V14.01,2013-01-05 07:46:00,
2013-01-05 02:51:00,32.8,19.3,30.00,NNW,345,4.0,14.0,57,0.00,,CLR,0.00,VWS V14.01,2013-01-05 07:51:00,
2013-01-05 02:56:00,32.7,19.2,30.00,NNW,339,4.0,14.0,57,0.00,,CLR,0.00,VWS V14.01,2013-01-05 07:56:00,
2013-01-05 03:01:00,32.7,19.2,30.01,NNW,342,9.0,9.0,57,0.00,,CLR,0.00,VWS V14.01,2013-01-05 08:01:00,
2013-01-05 03:06:00,32.6,19.1,30.00,North,350,4.0,9.0,57,0.00,,CLR,0.00,VWS V14.01,2013-01-05 08:06:00,
2013-01-05 03:11:00,32.6,19.1,30.01,NNW,348,7.0,12.0,57,0.00,,CLR,0.00,VWS V14.01,2013-01-05 08:11:00,
2013-01-05 03:16:00,32.6,19.1,30.01,North,1,11.0,12.0,57,0.00,,CLR,0.00,VWS V14.01,2013-01-05 08:16:00,
2013-01-05 03:21:00,32.4,18.9,30.01,NNW,336,4.0,12.0,57,0.00,,CLR,0.00,VWS V14.01,2013-01-05 08:21:00,
2013-01-05 03:26:00,32.3,18.8,30.01,NNW,333,5.0,12.0,57,0.00,,CLR,0.00,VWS V14.01,2013-01-05 08:26:00,
2013-01-05 03:31:00,32.3,18.8,30.01,NNW,328,7.0,10.0,57,0.00,,CLR,0.00,VWS V14.01,2013-01-05 08:31:00,
2013-01-05 03:36:00,32.3,18.8,30.01,NNW,340,5.0,12.0,57,0.00,,CLR,0.00,VWS V14.01,2013-01-05 08:36:00,
2013-01-05 03:41:00,32.3,18.8,30.01,North,357,6.0,13.0,57,0.00,,CLR,0.00,VWS V14.01,2013-01-05 08:41:00,
2013-01-05 03:46:00,32.2,18.7,30.01,North,1,3.0,13.0,57,0.00,,CLR,0.00,VWS V14.01,2013-01-05 08:46:00,
2013-01-05 03:51:00,32.2,18.7,30.01,North,349,5.0,13.0,57,0.00,,CLR,0.00,VWS V14.01,2013-01-05 08:51:00,
2013-01-05 03:56:00,32.1,19.0,30.01,NNW,341,6.0,13.0,58,0.00,,CLR,0.00,VWS V14.01,2013-01-05 08:56:00,
2013-01-05 04:01:00,32.1,19.0,30.01,NNW,328,3.0,4.0,58,0.00,,FEW050,0.00,VWS V14.01,2013-01-05 09:01:00,
2013-01-05 04:06:00,32.1,19.0,30.01,NNW,343,5.0,10.0,58,0.00,,FEW050,0.00,VWS V14.01,2013-01-05 09:06:00,
2013-01-05 04:11:00,32.0,18.9,30.01,NNW,329,2.0,10.0,58,0.00,,FEW050,0.00,VWS V14.01,2013-01-05 09:11:00,
2013-01-05 04:16:00,32.1,19.0,30.02,NNW,343,4.0,11.0,58,0.00,,FEW050,0.00,VWS V14.01,2013-01-05 09:16:00,
2013-01-05 04:21:00,32.0,18.9,30.01,NNW,333,5.0,11.0,58,0.00,,FEW050,0.00,VWS V14.01,2013-01-05 09:21:00,
2013-01-05 04:26:00,32.0,18.9,30.02,NNW,334,8.0,12.0,58,0.00,,FEW050,0.00,VWS V14.01,2013-01-05 09:26:00,
2013-01-05 04:31:00,32.0,18.9,30.02,North,355,3.0,5.0,58,0.00,,FEW050,0.00,VWS V14.01,2013-01-05 09:31:00,
2013-01-05 04:36:00,32.0,18.9,30.02,NW,325,4.0,9.0,58,0.00,,FEW050,0.00,VWS V14.01,2013-01-05 09:36:00,
2013-01-05 04:41:00,32.0,18.9,30.03,North,349,8.0,12.0,58,0.00,,FEW050,0.00,VWS V14.01,2013-01-05 09:41:00,
2013-01-05 04:46:00,32.0,18.9,30.03,NNW,344,4.0,12.0,58,0.00,,FEW050,0.00,VWS V14.01,2013-01-05 09:46:00,
2013-01-05 04:51:00,32.1,19.0,30.03,North,355,9.0,12.0,58,0.00,,FEW050,0.00,VWS V14.01,2013-01-05 09:51:00,
2013-01-05 04:56:00,32.1,19.0,30.03,North,352,2.0,12.0,58,0.00,,FEW050,0.00,VWS V14.01,2013-01-05 09:56:00,
2013-01-05 05:01:00,32.1,19.0,30.03,North,351,4.0,6.0,58,0.00,,SCT044,0.00,VWS V14.01,2013-01-05 10:01:00,
2013-01-05 05:06:00,32.1,19.0,30.04,NNW,334,6.0,12.0,58,0.00,,SCT044,0.00,VWS V14.01,2013-01-05 10:06:00,
2013-01-05 05:11:00,32.2,19.1,30.04,NW,322,4.0,12.0,58,0.00,,SCT044,0.00,VWS V14.01,2013-01-05 10:11:00,
2013-01-05 05:16:00,32.2,19.1,30.04,NW,309,4.0,12.0,58,0.00,,SCT044,0.00,VWS V14.01,2013-01-05 10:16:00,
2013-01-05 05:21:00,32.3,19.6,30.04,NW,322,7.0,12.0,59,0.00,,SCT044,0.00,VWS V14.01,2013-01-05 10:21:00,
2013-01-05 05:26:00,32.4,19.3,30.05,NW,316,5.0,12.0,58,0.00,,SCT044,0.00,VWS V14.01,2013-01-05 10:26:00,
2013-01-05 05:31:00,32.4,19.7,30.05,NNW,327,7.0,7.0,59,0.00,,SCT044,0.00,VWS V14.01,2013-01-05 10:31:00,
2013-01-05 05:36:00,32.4,19.7,30.06,NW,315,4.0,8.0,59,0.00,,SCT044,0.00,VWS V14.01,2013-01-05 10:36:00,
2013-01-05 05:41:00,32.4,19.7,30.06,NW,304,5.0,8.0,59,0.00,,SCT044,0.00,VWS V14.01,2013-01-05 10:41:00,
2013-01-05 05:46:00,32.3,19.6,30.06,NW,323,0.0,8.0,59,0.00,,SCT044,0.00,VWS V14.01,2013-01-05 10:46:00,
2013-01-05 05:51:00,32.3,19.6,30.07,NW,307,5.0,8.0,59,0.00,,SCT044,0.00,VWS V14.01,2013-01-05 10:51:00,
2013-01-05 05:56:00,32.3,19.6,30.06,WNW,300,0.0,8.0,59,0.00,,SCT044,0.00,VWS V14.01,2013-01-05 10:56:00,
2013-01-05 06:01:00,32.3,20.0,30.07,WNW,294,3.0,5.0,60,0.00,,BKN044,0.00,VWS V14.01,2013-01-05 11:01:00,
2013-01-05 06:06:00,32.3,20.0,30.07,NW,321,4.0,8.0,60,0.00,,BKN044,0.00,VWS V14.01,2013-01-05 11:06:00,
2013-01-05 06:11:00,32.3,20.0,30.07,NNW,327,2.0,8.0,60,0.00,,BKN044,0.00,VWS V14.01,2013-01-05 11:11:00,
2013-01-05 06:16:00,32.3,20.0,30.08,NW,319,2.0,8.0,60,0.00,,BKN044,0.00,VWS V14.01,2013-01-05 11:16:00,
2013-01-05 06:21:00,32.3,20.0,30.09,NW,310,0.0,8.0,60,0.00,,BKN044,0.00,VWS V14.01,2013-01-05 11:21:00,
2013-01-05 06:26:00,32.2,19.9,30.09,NNW,344,3.0,8.0,60,0.00,,BKN044,0.00,VWS V14.01,2013-01-05 11:26:00,
2013-01-05 06:31:00,32.2,19.9,30.09,NW,319,3.0,6.0,60,0.00,,BKN044,0.00,VWS V14.01,2013-01-05 11:31:00,
2013-01-05 06:36:00,32.3,20.0,30.10,NW,322,3.0,7.0,60,0.00,,BKN044,0.00,VWS V14.01,2013-01-05 11:36:00,
2013-01-05 06:41:00,32.3,20.0,30.09,NNW,348,3.0,8.0,60,0.00,,BKN044,0.00,VWS V14.01,2013-01-05 11:41:00,
2013-01-05 06:46:00,32.4,20.1,30.10,NNW,343,0.0,8.0,60,0.00,,BKN044,0.00,VWS V14.01,2013-01-05 11:46:00,
2013-01-05 06:51:00,32.3,20.0,30.10,NW,322,2.0,8.0,60,0.00,,BKN044,0.00,VWS V14.01,2013-01-05 11:51:00,
2013-01-05 06:56:00,32.2,19.9,30.10,NNW,333,3.0,9.0,60,0.00,,BKN044,0.00,VWS V14.01,2013-01-05 11:56:00,
2013-01-05 07:01:00,32.2,20.2,30.11,NW,318,3.0,6.0,61,0.00,,BKN044,0.00,VWS V14.01,2013-01-05 12:01:00,
2013-01-05 07:06:00,32.0,20.1,30.11,NW,324,2.0,6.0,61,0.00,,BKN044,0.00,VWS V14.01,2013-01-05 12:06:00,
2013-01-05 07:11:00,32.0,20.1,30.11,NNW,330,5.0,7.0,61,0.00,,BKN044,0.00,VWS V14.01,2013-01-05 12:11:00,
2013-01-05 07:16:00,32.0,20.1,30.12,NW,324,3.0,8.0,61,0.00,,BKN044,0.00,VWS V14.01,2013-01-05 12:16:00,
2013-01-05 07:21:00,32.0,20.1,30.11,NW,324,3.0,8.0,61,0.00,,BKN044,0.00,VWS V14.01,2013-01-05 12:21:00,
2013-01-05 07:26:00,31.9,20.0,30.11,NW,317,1.0,8.0,61,0.00,,BKN044,0.00,VWS V14.01,2013-01-05 12:26:00,
2013-01-05 07:31:00,31.8,20.3,30.12,NW,316,4.0,5.0,62,0.00,,BKN044,0.00,VWS V14.01,2013-01-05 12:31:00,
2013-01-05 07:36:00,31.8,20.3,30.12,WNW,300,4.0,5.0,62,0.00,,BKN044,0.00,VWS V14.01,2013-01-05 12:36:00,
2013-01-05 07:41:00,31.9,20.4,30.13,WNW,300,1.0,7.0,62,0.00,,BKN044,0.00,VWS V14.01,2013-01-05 12:41:00,
2013-01-05 07:46:00,31.8,20.4,30.13,WNW,301,0.0,7.0,62,0.00,,BKN044,0.00,VWS V14.01,2013-01-05 12:46:00,
2013-01-05 07:51:00,32.0,20.5,30.13,NW,325,0.0,7.0,62,0.00,,BKN044,0.00,VWS V14.01,2013-01-05 12:51:00,
2013-01-05 07:56:00,32.1,20.6,30.13,NW,317,4.0,7.0,62,0.00,,BKN044,0.00,VWS V14.01,2013-01-05 12:56:00,
2013-01-05 08:01:00,32.2,20.7,30.13,NNW,330,4.0,6.0,62,0.00,,SCT046,0.00,VWS V14.01,2013-01-05 13:01:00,
2013-01-05 08:06:00,32.2,20.8,30.13,NNW,340,3.0,6.0,62,0.00,,SCT046,0.00,VWS V14.01,2013-01-05 13:06:00,
2013-01-05 08:11:00,32.3,20.8,30.13,NNW,348,6.0,7.0,62,0.00,,SCT046,0.00,VWS V14.01,2013-01-05 13:11:00,
2013-01-05 08:16:00,32.5,20.9,30.15,NNW,328,6.0,7.0,62,0.00,,SCT046,0.00,VWS V14.01,2013-01-05 13:16:00,
2013-01-05 08:21:00,32.7,21.1,30.15,North,0,2.0,7.0,62,0.00,,SCT046,0.00,VWS V14.01,2013-01-05 13:21:00,
2013-01-05 08:26:00,33.0,21.2,30.15,NW,314,0.0,7.0,62,0.00,,SCT046,0.00,VWS V14.01,2013-01-05 13:26:00,
2013-01-05 08:31:00,33.1,21.5,30.15,NW,313,1.0,2.0,62,0.00,,SCT046,0.00,VWS V14.01,2013-01-05 13:31:00,
2013-01-05 08:36:00,33.3,21.3,30.16,NW,312,4.0,7.0,61,0.00,,SCT046,0.00,VWS V14.01,2013-01-05 13:36:00,
2013-01-05 08:41:00,33.5,21.5,30.15,NW,322,4.0,7.0,61,0.00,,SCT046,0.00,VWS V14.01,2013-01-05 13:41:00,
2013-01-05 08:46:00,33.8,21.8,30.16,WNW,300,2.0,7.0,61,0.00,,SCT046,0.00,VWS V14.01,2013-01-05 13:46:00,
2013-01-05 08:51:00,34.0,22.0,30.16,NW,324,4.0,7.0,61,0.00,,SCT046,0.00,VWS V14.01,2013-01-05 13:51:00,
2013-01-05 08:56:00,34.4,22.0,30.16,WNW,300,2.0,7.0,60,0.00,,SCT046,0.00,VWS V14.01,2013-01-05 13:56:00,
2013-01-05 09:01:00,34.7,22.2,30.17,NNW,333,5.0,6.0,60,0.00,,SCT250,0.00,VWS V14.01,2013-01-05 14:01:00,
2013-01-05 09:06:00,35.0,22.1,30.17,NW,316,4.0,7.0,59,0.00,,SCT250,0.00,VWS V14.01,2013-01-05 14:06:00,
2013-01-05 09:11:00,35.3,22.4,30.17,NNW,345,8.0,8.0,59,0.00,,SCT250,0.00,VWS V14.01,2013-01-05 14:11:00,
2013-01-05 09:16:00,35.6,22.3,30.17,NW,325,5.0,8.0,58,0.00,,SCT250,0.00,VWS V14.01,2013-01-05 14:16:00,
2013-01-05 09:20:00,35.9,22.6,30.17,NNW,340,9.0,9.0,58,0.00,,SCT250,0.00,VWS V14.01,2013-01-05 14:20:00,
2013-01-05 09:25:00,36.2,22.5,30.18,NW,323,0.0,9.0,57,0.00,,SCT250,0.00,VWS V14.01,2013-01-05 14:25:00,
2013-01-05 09:30:00,36.5,22.7,30.18,NNW,330,4.0,9.0,57,0.00,,SCT250,0.00,VWS V14.01,2013-01-05 14:30:00,
2013-01-05 09:35:00,36.6,22.8,30.17,North,0,0.0,11.0,57,0.00,,SCT250,0.00,VWS V14.01,2013-01-05 14:35:00,
2013-01-05 09:40:00,36.7,22.5,30.17,North,357,5.0,11.0,56,0.00,,SCT250,0.00,VWS V14.01,2013-01-05 14:40:00,
2013-01-05 09:45:00,36.9,22.7,30.18,NNW,333,5.0,11.0,56,0.00,,SCT250,0.00,VWS V14.01,2013-01-05 14:45:00,
2013-01-05 09:50:00,37.1,22.9,30.18,North,356,6.0,12.0,56,0.00,,SCT250,0.00,VWS V14.01,2013-01-05 14:50:00,
2013-01-05 09:55:00,37.3,22.6,30.18,NNW,335,6.0,12.0,55,0.00,,SCT250,0.00,VWS V14.01,2013-01-05 14:55:00,
2013-01-05 10:00:00,37.5,22.8,30.18,North,357,2.0,5.0,55,0.00,,SCT250,0.00,VWS V14.01,2013-01-05 15:00:00,
2013-01-05 10:05:00,37.7,23.0,30.18,NW,317,4.0,11.0,55,0.00,,SCT250,0.00,VWS V14.01,2013-01-05 15:05:00,
2013-01-05 10:10:00,38.0,23.3,30.19,NNW,346,3.0,11.0,55,0.00,,SCT250,0.00,VWS V14.01,2013-01-05 15:10:00,
2013-01-05 10:15:00,38.3,23.1,30.19,NNW,340,3.0,11.0,54,0.00,,SCT250,0.00,VWS V14.01,2013-01-05 15:15:00,
2013-01-05 10:20:00,38.5,23.3,30.19,North,354,7.0,11.0,54,0.00,,SCT250,0.00,VWS V14.01,2013-01-05 15:20:00,
2013-01-05 10:25:00,38.8,23.6,30.19,North,350,5.0,15.0,54,0.00,,SCT250,0.00,VWS V14.01,2013-01-05 15:25:00,
2013-01-05 10:30:00,39.2,24.0,30.19,NNE,17,9.0,9.0,54,0.00,,SCT250,0.00,VWS V14.01,2013-01-05 15:30:00,
2013-01-05 10:35:00,39.6,23.4,30.19,NNW,345,5.0,19.0,52,0.00,,SCT250,0.00,VWS V14.01,2013-01-05 15:35:00,
2013-01-05 10:40:00,39.8,23.6,30.19,NE,34,14.0,19.0,52,0.00,,SCT250,0.00,VWS V14.01,2013-01-05 15:40:00,
2013-01-05 10:45:00,39.9,23.7,30.18,North,7,8.0,19.0,52,0.00,,SCT250,0.00,VWS V14.01,2013-01-05 15:45:00,
2013-01-05 10:50:00,40.0,23.8,30.18,North,359,6.0,19.0,52,0.00,,SCT250,0.00,VWS V14.01,2013-01-05 15:50:00,
2013-01-05 10:55:00,40.2,23.5,30.18,North,5,9.0,19.0,51,0.00,,SCT250,0.00,VWS V14.01,2013-01-05 15:55:00,
2013-01-05 11:00:00,40.2,23.5,30.18,North,356,13.0,15.0,51,0.00,,SCT250,0.00,VWS V14.01,2013-01-05 16:00:00,
2013-01-05 11:05:00,40.3,23.6,30.18,North,352,4.0,15.0,51,0.00,,SCT250,0.00,VWS V14.01,2013-01-05 16:05:00,
2013-01-05 11:10:00,40.7,24.0,30.19,North,5,15.0,16.0,51,0.00,,SCT250,0.00,VWS V14.01,2013-01-05 16:10:00,
2013-01-05 11:15:00,40.9,23.7,30.19,NNW,348,8.0,17.0,50,0.00,,SCT250,0.00,VWS V14.01,2013-01-05 16:15:00,
2013-01-05 11:20:00,41.0,23.8,30.20,NNW,347,10.0,17.0,50,0.00,,SCT250,0.00,VWS V14.01,2013-01-05 16:20:00,
2013-01-05 11:25:00,41.1,24.4,30.20,NNE,26,4.0,17.0,51,0.00,,SCT250,0.00,VWS V14.01,2013-01-05 16:25:00,
2013-01-05 11:30:00,41.3,24.1,30.19,NNE,17,9.0,14.0,50,0.00,,SCT250,0.00,VWS V14.01,2013-01-05 16:30:00,
2013-01-05 11:35:00,41.4,24.2,30.19,North,357,13.0,17.0,50,0.00,,SCT250,0.00,VWS V14.01,2013-01-05 16:35:00,
2013-01-05 11:40:00,41.6,24.4,30.18,North,11,4.0,17.0,50,0.00,,SCT250,0.00,VWS V14.01,2013-01-05 16:40:00,
2013-01-05 11:45:00,41.8,24.1,30.17,NNE,18,6.0,17.0,49,0.00,,SCT250,0.00,VWS V14.01,2013-01-05 16:45:00,
2013-01-05 11:50:00,42.1,24.3,30.18,NNE,16,8.0,17.0,49,0.00,,SCT250,0.00,VWS V14.01,2013-01-05 16:50:00,
2013-01-05 11:55:00,41.9,24.1,30.18,North,350,7.0,19.0,49,0.00,,SCT250,0.00,VWS V14.01,2013-01-05 16:55:00,
2013-01-05 12:00:00,41.7,24.5,30.18,NNE,18,9.0,12.0,50,0.00,,SCT250,0.00,VWS V14.01,2013-01-05 17:00:00,
2013-01-05 12:05:00,41.9,24.1,30.17,North,10,12.0,13.0,49,0.00,,SCT250,0.00,VWS V14.01,2013-01-05 17:05:00,
2013-01-05 12:10:00,41.9,24.6,30.17,North,3,9.0,13.0,50,0.00,,SCT250,0.00,VWS V14.01,2013-01-05 17:10:00,
2013-01-05 12:15:00,42.1,24.8,30.16,NNE,14,5.0,19.0,50,0.00,,SCT250,0.00,VWS V14.01,2013-01-05 17:15:00,
2013-01-05 12:20:00,42.7,25.4,30.16,North,358,8.0,19.0,50,0.00,,SCT250,0.00,VWS V14.01,2013-01-05 17:20:00,
2013-01-05 12:25:00,42.8,25.5,30.16,NNE,21,6.0,19.0,50,0.00,,SCT250,0.00,VWS V14.01,2013-01-05 17:25:00,
2013-01-05 12:30:00,43.0,24.7,30.15,NNE,18,10.0,10.0,48,0.00,,SCT250,0.00,VWS V14.01,2013-01-05 17:30:00,
2013-01-05 12:35:00,42.9,25.1,30.16,North,7,6.0,14.0,49,0.00,,SCT250,0.00,VWS V14.01,2013-01-05 17:35:00,
2013-01-05 12:40:00,43.5,25.1,30.15,North,2,4.0,14.0,48,0.00,,SCT250,0.00,VWS V14.01,2013-01-05 17:40:00,
2013-01-05 12:45:00,43.6,25.2,30.15,NNE,29,4.0,15.0,48,0.00,,SCT250,0.00,VWS V14.01,2013-01-05 17:45:00,
2013-01-05 12:50:00,43.8,24.9,30.15,North,349,4.0,15.0,47,0.00,,SCT250,0.00,VWS V14.01,2013-01-05 17:50:00,
2013-01-05 12:55:00,43.8,24.4,30.16,North,9,9.0,15.0,46,0.00,,SCT250,0.00,VWS V14.01,2013-01-05 17:55:00,
2013-01-05 13:00:00,43.4,25.0,30.15,North,5,4.0,9.0,48,0.00,,SCT250,0.00,VWS V14.01,2013-01-05 18:00:00,
2013-01-05 13:05:00,43.6,25.2,30.16,North,3,12.0,13.0,48,0.00,,SCT250,0.00,VWS V14.01,2013-01-05 18:05:00,
2013-01-05 13:10:00,44.1,25.2,30.15,NNE,27,6.0,14.0,47,0.00,,SCT250,0.00,VWS V14.01,2013-01-05 18:10:00,
2013-01-05 13:15:00,44.1,25.2,30.16,NNE,17,6.0,14.0,47,0.00,,SCT250,0.00,VWS V14.01,2013-01-05 18:15:00,
2013-01-05 13:20:00,44.3,24.8,30.16,North,350,7.0,14.0,46,0.00,,SCT250,0.00,VWS V14.01,2013-01-05 18:20:00,
2013-01-05 13:25:00,44.1,24.7,30.16,SSW,205,2.0,14.0,46,0.00,,SCT250,0.00,VWS V14.01,2013-01-05 18:25:00,
2013-01-05 13:30:00,44.4,25.5,30.16,NNE,31,2.0,6.0,47,0.00,,SCT250,0.00,VWS V14.01,2013-01-05 18:30:00,
2013-01-05 13:35:00,44.9,25.4,30.16,North,8,3.0,8.0,46,0.00,,SCT250,0.00,VWS V14.01,2013-01-05 18:35:00,
2013-01-05 13:40:00,45.1,25.6,30.16,NW,317,0.0,9.0,46,0.00,,SCT250,0.00,VWS V14.01,2013-01-05 18:40:00,